Location: Branche des Alpilles
(43.6087°N, 4.6976°E)
Time: 12:45:55
(UTC+00:00)

CZ-4 R/B - Pass Details

Date: 30 November 2020
Orbit: 532 x 598 km, 97.7° (Epoch: 25 January)

Event Time Altitude Azimuth Distance (km) Brightness Sun altitude
Rises 17:33:47 0° 142° (SE) 2,710 4.6 -15.5°
Enters shadow 17:34:18 - 141° (SE) 2,504 4.4 -15.6°
Exits shadow 17:40:25 29° 44° (NE) 1,062 2.3 -16.6°
Drops below altitude 10° 17:43:10 10° 7° (N) 1,880 3.8 -17.1°
Sets 17:45:30 0° 357° (N) 2,795 4.8 -17.5°
